[[{"header":{"parameterUnit":"m.s-1","parameterCategory":1,"la1":30.2991,"la2":30.254,"lo1":-89.0895,"lo2":-89.0444,"dy":0.0017,"dx":0.0017,"nx":28,"ny":28,"refTime":"2023-08-11T03:00:00:Z","depth":0,"parameterNumber":2,"parameterNumberName":"U-component_of_WINDS"},"data":[0,0,0,0,0,0,0,0,0,0,0,0,0,0,0,0,0,0,0,0,0,0,0,0,0,0,0,0,0,0,0,0,0,0,0,0,0,0,0,0,0,0,0,0,0,0,0,0,0,0,0,0,0,0,0,0,0,0,5.1147,5.1148,0,5.1224,5.1224,5.1225,5.1104,5.1099,5.1095,5.1091,5.1173,5.1179,5.1185,0,0,0,0,0,0,0,0,0,0,0,0,0,5.0897,5.0902,5.1147,5.1148,5.1149,5.1223,5.1224,5.1225,5.1104,5.1099,5.1094,5.1089,5.1171,5.1178,5.1185,0,0,0,0,0,0,0,0,0,0,0,0,0,5.0993,5.0903,5.1147,5.1097,5.1094,5.1223,5.1224,5.1226,5.1105,5.1099,5.1093,5.1087,5.1168,5.1177,5.1186,5.1368,0,0,5.1214,5.1218,0,0,0,0,0,0,0,0,5.0987,5.1002,5.1104,5.1101,5.1097,5.1147,5.1166,5.1274,5.1107,5.1101,5.1091,5.1084,5.117,5.1178,5.1206,5.1372,5.1376,5.1215,5.122,5.1224,5.1227,0,0,0,0,0,0,0,5.0981,5.0998,5.1177,5.1105,5.1101,5.1071,5.1078,5.1186,5.117,5.1101,5.1092,5.1103,5.1167,5.1198,5.1207,5.1377,5.1215,5.1223,5.1228,5.1232,5.1692,5.1699,0,0,0,0,0,0,5.098,5.0993,5.1175,5.118,5.1025,5.1081,5.1089,5.1138,5.1168,5.1167,5.1108,5.1097,5.1186,5.1197,5.121,5.1422,5.1224,5.1233,5.1238,5.1686,5.1694,5.1701,0,0,0,0,0,0,5.0975,5.0997,5.1172,5.1084,5.1104,5.1092,5.1148,5.1143,5.1174,5.1174,5.117,5.1143,5.1181,5.1197,5.1329,5.1424,5.1237,5.1245,5.1678,5.1688,5.1697,5.1851,0,0,0,0,0,0,5.0968,5.0996,5.1066,5.1086,5.1109,5.129,5.1154,5.1149,5.1189,5.1175,5.1206,5.1205,5.1177,5.1316,5.1338,5.1433,5.1252,5.1669,5.1682,5.1694,5.1837,5.1865,5.1889,0,0,0,0,0,5.096,5.1107,5.107,5.1092,5.1195,5.1295,5.1308,5.1273,5.1198,5.1267,5.1266,5.1204,5.141,5.133,5.1354,5.1453,5.1663,5.1679,5.1693,5.1826,5.186,5.1888,0,0,0,0,0,0,5.1099,5.1109,5.1068,5.1226,5.1261,5.1275,5.1361,5.1311,5.1368,5.1353,5.1308,5.1316,5.1456,5.1468,5.1379,5.1629,5.1524,5.1545,5.1616,5.1648,5.1674,5.1667,5.126,0,0,0,0,0,5.1148,5.1228,5.1233,5.1372,5.1391,5.1374,5.1416,5.1385,5.142,5.1434,5.1444,5.148,5.1552,5.1601,5.1669,5.1839,5.1842,5.1918,5.1944,5.1965,5.1983,5.2071,5.2104,5.1751,5.1751,5.1751,0,0,5.1251,5.1266,5.1319,5.14,5.1423,5.1507,5.1387,5.1481,5.1542,5.1449,5.1572,5.1581,5.1618,5.1769,5.1836,5.1784,5.2081,5.1985,5.2002,5.2008,5.209,5.2123,5.2153,5.1761,5.176,5.1758,0,0,5.1479,5.15,5.1616,5.1641,5.1677,5.1664,5.1692,5.1714,5.1715,5.1838,5.1769,5.1841,5.1968,5.1996,5.2028,5.2264,5.2208,5.2288,5.2422,5.2508,5.2536,5.256,5.2642,5.2672,5.2306,5.2307,5.2307,0,5.1602,5.1724,5.1683,5.1781,5.1817,5.1735,5.1852,5.1879,5.1936,5.1963,5.1903,5.2058,5.2078,5.2232,5.229,5.2319,5.2348,5.2284,5.2535,5.2559,5.2581,5.2658,5.269,5.2316,5.2315,5.2314,5.2313,0,5.1872,5.1958,5.2048,5.2102,5.2149,5.2257,5.2231,5.2284,5.2249,5.2242,5.2367,5.2388,5.2456,5.2491,5.2459,5.2641,5.2606,5.2542,5.2434,5.2624,5.2696,5.2726,5.2329,5.2326,5.2323,5.2321,0,0,5.2191,5.2219,5.2252,5.2275,5.2307,5.2373,5.2476,5.2541,5.2586,5.2628,5.2712,5.282,5.2759,5.2794,5.2765,5.2841,5.3023,5.2766,5.2766,5.2811,5.3221,5.3268,5.3303,5.2986,5.2992,5.2996,5.3217,0,5.2416,5.2592,5.2556,5.2729,5.2806,5.2728,5.2817,5.2847,5.2843,5.2908,5.2904,5.298,5.2895,5.2916,5.2987,5.2986,5.3105,5.297,5.3063,5.3067,5.3054,5.3341,5.3392,5.3599,5.3245,5.325,5.3254,0,5.2702,5.2751,5.2931,5.2948,5.2979,5.306,5.3115,5.3179,5.3211,5.3202,5.3241,5.3196,5.3297,5.319,5.3328,5.3237,5.3273,5.3278,5.3285,5.3291,5.317,5.3353,5.3665,5.3695,5.3298,5.3294,5.3291,0,5.2913,5.3025,5.3146,5.3168,5.3192,5.325,5.3263,5.3288,5.3328,5.3377,5.3402,5.3464,5.3496,5.3544,5.3517,5.3441,5.3659,5.355,5.3653,5.3654,5.3701,5.3698,5.4022,5.3729,5.3729,5.3728,5.3727,0,5.3166,5.3279,5.324,5.3315,5.3437,5.3396,5.3519,5.3522,5.3545,5.3618,5.3556,5.3626,5.3586,5.3653,5.3632,5.3748,5.3764,5.3759,5.3752,5.3764,5.3764,5.3785,5.377,5.3736,5.3734,5.3733,5.3731,0,5.3422,5.3401,5.3527,5.3539,5.3544,5.3634,5.3644,5.3713,5.3703,5.3796,5.3816,5.3802,5.3877,5.3854,5.3936,5.3922,5.4068,5.4044,5.4057,5.405,5.4154,5.4144,5.45,5.4544,5.4226,5.4229,5.4232,0,5.3584,5.3668,5.3688,5.3732,5.3748,5.3821,5.386,5.3822,5.3867,5.3907,5.3971,5.404,5.4093,5.4217,5.4214,5.4276,5.4251,5.4372,5.426,5.4268,5.4249,5.4244,5.4251,5.4393,5.4397,5.44,5.4403,0,5.3873,5.3858,5.3918,5.3974,5.4023,5.4066,5.4102,5.4142,5.4106,5.4159,5.4234,5.4275,5.4357,5.4426,5.4482,5.4495,5.4443,5.4438,5.4464,5.4476,5.4479,5.4476,5.4115,5.443,5.4427,5.4425,5.4423,5.4422,5.4085,5.4155,5.4179,5.4247,5.427,5.4305,5.4369,5.4367,5.4429,5.4491,5.4465,5.4551,5.4578,5.4647,5.4667,5.4733,5.4687,5.4727,5.4736,5.4746,5.4758,5.447,5.4744,5.4743,5.4742,5.4742,5.4741,0,5.4369,5.4379,5.4442,5.4494,5.4548,5.4493,5.453,5.4578,5.4654,5.4683,5.4736,5.4821,5.4887,5.4888,5.495,5.5002,5.498,5.5019,5.5014,5.5017,5.4797,5.4767,5.5036,5.5036,5.5036,5.5036,5.5036,5.5036,5.4522,5.4636,5.4624,5.4748,5.4758,5.484,5.4866,5.4898,5.492,5.5017,5.5071,5.5071,5.5088,5.515,5.5208,5.5206,5.5231,5.5279,5.5269,5.5063,5.5033,5.5005,5.4976,5.5285,5.5286,5.5483,5.5484,5.5486]},{"header":{"parameterUnit":"m.s-1","parameterCategory":1,"la1":30.2991,"la2":30.254,"lo1":-89.0895,"lo2":-89.0444,"dy":0.0017,"dx":0.0017,"nx":28,"ny":28,"refTime":"2023-08-11T03:00:00:Z","depth":0,"parameterNumber":3,"parameterNumberName":"V-component_of_WINDS"},"data":[0,0,0,0,0,0,0,0,0,0,0,0,0,0,0,0,0,0,0,0,0,0,0,0,0,0,0,0,0,0,0,0,0,0,0,0,0,0,0,0,0,0,0,0,0,0,0,0,0,0,0,0,0,0,0,0,0,0,3.7148,3.715,0,3.7269,3.727,3.7271,3.7272,3.7271,3.7269,3.7268,3.7385,3.739,3.7394,0,0,0,0,0,0,0,0,0,0,0,0,0,3.6913,3.6917,3.7148,3.715,3.7151,3.7268,3.727,3.7272,3.7273,3.7271,3.7269,3.7267,3.7384,3.7389,3.7394,0,0,0,0,0,0,0,0,0,0,0,0,0,3.7022,3.6919,3.7148,3.7166,3.7169,3.7268,3.727,3.7272,3.7273,3.7271,3.7269,3.7266,3.7382,3.7388,3.7395,3.7482,0,0,3.7416,3.7419,0,0,0,0,0,0,0,0,3.7016,3.7031,3.7162,3.7165,3.7168,3.7253,3.723,3.7342,3.7274,3.7233,3.7268,3.7265,3.7343,3.7353,3.738,3.7488,3.7493,3.7417,3.7421,3.7424,3.7426,0,0,0,0,0,0,0,3.7009,3.7026,3.7196,3.7164,3.7168,3.7166,3.7179,3.7251,3.7299,3.7237,3.7237,3.7252,3.7344,3.7373,3.7383,3.7495,3.7416,3.7422,3.7427,3.7429,3.7677,3.768,0,0,0,0,0,0,3.6998,3.7019,3.7192,3.7199,3.7085,3.7172,3.7187,3.7228,3.7298,3.7307,3.7253,3.7251,3.7363,3.7375,3.7387,3.7492,3.7424,3.743,3.7434,3.7675,3.7678,3.7681,0,0,0,0,0,0,3.6993,3.7014,3.7187,3.711,3.7132,3.7179,3.7225,3.7232,3.7261,3.7311,3.7319,3.7275,3.7362,3.7377,3.7459,3.7496,3.7433,3.7439,3.7672,3.7676,3.7679,3.7704,0,0,0,0,0,0,3.6986,3.7012,3.7047,3.711,3.7136,3.7259,3.7228,3.7236,3.7274,3.7272,3.7334,3.7341,3.7361,3.7448,3.7465,3.7504,3.7444,3.7669,3.7674,3.7678,3.77,3.7708,3.7715,0,0,0,0,0,3.6978,3.7049,3.7049,3.707,3.7181,3.7261,3.7275,3.7298,3.7277,3.7311,3.7343,3.7339,3.7489,3.7457,3.7476,3.7517,3.7667,3.7672,3.7678,3.7697,3.7707,3.7715,0,0,0,0,0,0,3.6987,3.7057,3.7059,3.7152,3.7201,3.7261,3.7306,3.7308,3.7363,3.7358,3.7382,3.7396,3.7477,3.7505,3.7468,3.7604,3.7575,3.7585,3.7583,3.7593,3.76,3.7591,3.745,0,0,0,0,0,3.7,3.7061,3.7119,3.7195,3.722,3.7259,3.7294,3.7308,3.7358,3.7378,3.7416,3.7464,3.7521,3.7559,3.7614,3.7704,3.7716,3.7742,3.7749,3.7755,3.7763,3.781,3.7822,3.7699,3.7699,3.7699,0,0,3.7027,3.7073,3.711,3.7198,3.7238,3.7298,3.7276,3.7341,3.7385,3.7388,3.7467,3.7496,3.755,3.7636,3.7675,3.7662,3.78,3.7763,3.7767,3.7772,3.7817,3.7829,3.7839,3.7703,3.7703,3.7702,0,0,3.7107,3.715,3.7217,3.7257,3.7318,3.7343,3.7359,3.7419,3.7439,3.7519,3.7521,3.7573,3.7673,3.7711,3.7743,3.7836,3.7834,3.7853,3.7892,3.7938,3.7948,3.7956,3.7987,3.7999,3.7861,3.7861,3.7861,0,3.7133,3.7227,3.7251,3.7317,3.7354,3.7361,3.7428,3.7465,3.7539,3.7564,3.7548,3.7672,3.7709,3.7803,3.7825,3.7852,3.7869,3.7846,3.7945,3.7954,3.7962,3.7992,3.8004,3.7863,3.7863,3.7863,3.7862,0,3.7254,3.7318,3.7365,3.7439,3.7482,3.7548,3.758,3.762,3.7629,3.7655,3.7735,3.778,3.7844,3.7867,3.7876,3.7961,3.7951,3.794,3.7911,3.7975,3.8003,3.8015,3.7866,3.7865,3.7864,3.7864,0,0,3.7343,3.7429,3.7446,3.7479,3.7545,3.7594,3.7659,3.7723,3.7756,3.7807,3.786,3.7944,3.7933,3.797,3.7983,3.8024,3.8092,3.8007,3.8009,3.802,3.8185,3.8192,3.8206,3.8091,3.8093,3.8095,3.818,0,3.7429,3.7547,3.7571,3.7672,3.773,3.7736,3.7792,3.7838,3.7863,3.7915,3.7942,3.8,3.7983,3.8005,3.8045,3.8075,3.8125,3.8069,3.8138,3.8141,3.8124,3.8221,3.8229,3.8307,3.8192,3.8194,3.8195,0,3.7546,3.7601,3.7708,3.7765,3.779,3.7841,3.7901,3.7951,3.8001,3.8016,3.8057,3.8066,3.813,3.8099,3.8187,3.8149,3.8178,3.8197,3.8201,3.8207,3.8171,3.8228,3.8333,3.8344,3.8213,3.8212,3.821,0,3.7598,3.7698,3.7775,3.7803,3.7872,3.7907,3.7937,3.7986,3.8022,3.8074,3.8097,3.8155,3.8186,3.823,3.8252,3.8228,3.8338,3.8309,3.8351,3.835,3.8373,3.8371,3.8482,3.8394,3.8394,3.8394,3.8394,0,3.7691,3.7755,3.78,3.7847,3.7919,3.7944,3.8014,3.8043,3.8086,3.8137,3.8145,3.8192,3.822,3.827,3.8288,3.8357,3.8372,3.8384,3.8388,3.8383,3.8381,3.8402,3.8396,3.8397,3.8396,3.8396,3.8395,0,3.7761,3.7793,3.7877,3.7936,3.7952,3.8002,3.8051,3.8095,3.8121,3.8185,3.8201,3.824,3.83,3.8327,3.8401,3.8413,3.8491,3.8491,3.8474,3.8475,3.8514,3.851,3.8642,3.8659,3.8561,3.8562,3.8563,0,3.7817,3.7867,3.7932,3.7967,3.7998,3.8056,3.8093,3.8119,3.8157,3.8218,3.8255,3.8315,3.8365,3.8459,3.8492,3.8548,3.8549,3.8591,3.8557,3.855,3.8547,3.8543,3.8547,3.8597,3.8598,3.8599,3.8599,0,3.7913,3.7927,3.7982,3.8042,3.8087,3.8135,3.8182,3.821,3.8243,3.8285,3.8347,3.8386,3.8461,3.852,3.8577,3.8605,3.8607,3.861,3.8622,3.8617,3.8604,3.8609,3.8489,3.8606,3.8606,3.8605,3.8605,3.8604,3.7977,3.8021,3.8073,3.8133,3.8172,3.8216,3.826,3.8291,3.8344,3.8408,3.842,3.8485,3.8532,3.861,3.864,3.8689,3.8679,3.8697,3.8701,3.8705,3.8707,3.8597,3.87,3.87,3.87,3.87,3.8699,0,3.8072,3.8106,3.8161,3.8227,3.8274,3.8274,3.8325,3.8364,3.8422,3.8466,3.8515,3.8585,3.8642,3.868,3.8736,3.8769,3.8771,3.8782,3.8779,3.8785,3.8713,3.8697,3.878,3.878,3.878,3.878,3.878,3.878,3.8127,3.8201,3.822,3.8313,3.8345,3.8411,3.844,3.8479,3.8515,3.8593,3.8641,3.8666,3.8707,3.8767,3.8818,3.8827,3.8847,3.8859,3.8868,3.8799,3.8791,3.8783,3.8767,3.8864,3.8864,3.8935,3.8936,3.8937]}]]